Ann Arbor, MI

3:59 PM EDT on August 23, 2017 (GMT -0400)
Ann Arbor Municipal

Weather History for KARB - March, 2012

Change the Weather History Date:

Wednesday, March 14, 2012

  Actual Average Record
Temperature  
Mean Temperature 54 °F -  
Max Temperature 75 °F 40 °F 75 °F (2012)
Min Temperature 32 °F 23 °F 9 °F (2017)
Degree Days  
Heating Degree Days 12    
Growing Degree Days 4 (Base 50)    
Moisture  
Dew Point 40 °F    
Average Humidity 60    
Maximum Humidity 88    
Minimum Humidity 34    
Precipitation  
Precipitation 0.00 in - - ()
Sea Level Pressure  
Sea Level Pressure 30.09 in    
Wind  
Wind Speed 4 mph (SSW)    
Max Wind Speed 16 mph    
Max Gust Speed 21 mph    
Visibility 10 miles    
Events      
Averages and records for this station are not official NWS values.
T = Trace of Precipitation, MM = Missing Value Source: NWS Daily Summary

Daily Weather History Graph

Daily Weather History Graph

Search for Another Location

Airport or City:

Trip Planner

Search our weather history database for the weather conditions in past years. The results will help you decide how hot, cold, wet, or windy it might be!

Date:

Astronomy

Mar. 14, 2012 Rise Set
Actual Time 7:47 AM EDT 7:40 PM EDT
Civil Twilight 7:19 AM EDT 8:08 PM EDT
Nautical Twilight 6:47 AM EDT 8:41 PM EDT
Astronomical Twilight 6:14 AM EDT 9:14 PM EDT
Moon 2:22 AM EDT (3/14) 11:50 AM EDT (3/14)
Length of Visible Light 12h 48m
Length of Day
11h 53m
Waning Gibbous, 54% of the Moon is Illuminated
Mar 14
Waning Gibbous
Mar 14
Last Quarter
Mar 22
New
Mar 30
First Quarter
Apr 6
Full

Hourly Weather History & Observations

Time (EDT) Temp. Windchill Dew Point Humidity Pressure Visibility Wind Dir Wind Speed Gust Speed Precip Events Conditions
12:53 AM 37.9 °F 35.5 °F 30.0 °F 73% 30.12 in 10.0 mi West 3.5 mph - N/A   Clear
1:53 AM 35.1 °F - 28.9 °F 78% 30.12 in 10.0 mi Calm Calm - N/A   Clear
2:53 AM 35.1 °F - 30.0 °F 82% 30.12 in 10.0 mi Calm Calm - N/A   Clear
4:53 AM 35.1 °F - 30.9 °F 85% 30.11 in 10.0 mi Calm Calm - N/A   Clear
5:53 AM 32.0 °F - 28.9 °F 88% 30.13 in 10.0 mi Calm Calm - N/A   Clear
6:53 AM 34.0 °F - 30.0 °F 85% 30.14 in 10.0 mi Calm Calm - N/A   Clear
7:53 AM 32.0 °F - 28.9 °F 88% 30.16 in 10.0 mi Calm Calm - N/A   Clear
8:53 AM 39.0 °F - 34.0 °F 82% 30.16 in 10.0 mi Calm Calm - N/A   Clear
9:53 AM 51.1 °F - 32.0 °F 48% 30.17 in 10.0 mi SSW 3.5 mph - N/A   Clear
10:53 AM 57.0 °F - 28.9 °F 34% 30.16 in 10.0 mi SSE 8.1 mph - N/A   Clear
11:53 AM 62.1 °F - 34.0 °F 35% 30.14 in 10.0 mi South 8.1 mph - N/A   Clear
12:53 PM 66.0 °F - 42.1 °F 42% 30.12 in 10.0 mi SSW 6.9 mph - N/A   Clear
1:53 PM 68.0 °F - 46.0 °F 45% 30.10 in 10.0 mi South 10.4 mph - N/A   Clear
2:53 PM 72.0 °F - 50.0 °F 46% 30.06 in 10.0 mi South 9.2 mph 17.3 mph N/A   Clear
3:53 PM 73.9 °F - 48.9 °F 41% 30.05 in 10.0 mi SSW 13.8 mph - N/A   Clear
4:53 PM 75.0 °F - 48.9 °F 40% 30.04 in 10.0 mi SSW 16.1 mph 20.7 mph N/A   Clear
5:53 PM 75.9 °F - 48.0 °F 37% 30.03 in 10.0 mi South 12.7 mph 19.6 mph N/A   Clear
6:53 PM 73.9 °F - 48.9 °F 41% 30.02 in 10.0 mi South 9.2 mph - N/A   Clear
7:53 PM 69.1 °F - 48.9 °F 49% 30.03 in 10.0 mi SSW 6.9 mph - N/A   Clear
8:53 PM 66.0 °F - 48.9 °F 54% 30.04 in 10.0 mi SSW 4.6 mph - N/A   Clear
9:53 PM 64.0 °F - 50.0 °F 60% 30.04 in 10.0 mi SSW 5.8 mph - N/A   Clear
10:53 PM 61.0 °F - 51.1 °F 70% 30.04 in 10.0 mi SSW 5.8 mph - N/A   Clear
11:53 PM 61.0 °F - 51.1 °F 70% 30.04 in 10.0 mi South 4.6 mph - N/A   Clear